Weather History for Chester, CT

Change the Weather History Date:

Monday, February 18, 2013

  Actual Average (KHVN) Record (KHVN)
Temperature  
Mean Temperature 24 °F -  
Max Temperature 32 °F 38 °F 30 °F (2014)
Min Temperature 17 °F 25 °F 19 °F (2014)
Degree Days  
Heating Degree Days 40    
Moisture  
Dew Point 2 °F    
Average Humidity 37    
Maximum Humidity 49    
Minimum Humidity 25    
Precipitation  
Precipitation 0.00 in - - ()
Sea Level Pressure  
Sea Level Pressure 30.06 in    
Wind  
Wind Speed 13 mph (WNW)    
Max Wind Speed 22 mph    
Max Gust Speed 38 mph    
Visibility 10 miles    
Events      
Averages and records for this station are not official NWS values.
T = Trace of Precipitation, MM = Missing Value Source: NWS Daily Summary

Daily Weather History Graph

Daily Weather History Graph

Search for Another Location

Airport:

Trip Planner

Search our weather history database for the weather conditions in past years. The results will help you decide how hot, cold, wet, or windy it might be!

Date:

Astronomy

Feb. 18, 2013 Rise Set
Actual Time 6:40 AM EST 5:27 PM EST
Civil Twilight 6:12 AM EST 5:56 PM EST
Nautical Twilight 5:40 AM EST 6:28 PM EST
Astronomical Twilight 5:08 AM EST 7:00 PM EST
Moon 11:09 AM EST (2/18) 1:19 AM EST (2/18)
Length of Visible Light 11h 43m
Length of Day
10h 47m
First Quarter, 58% of the Moon is Illuminated
Feb 18
First Quarter
Feb 25
Full
Mar 4
Last Quarter
Mar 11
New
Mar 19
First Quarter

Hourly Weather History & Observations

Time (EST) Temp. Windchill Dew Point Humidity Pressure Visibility Wind Dir Wind Speed Gust Speed Precip Events Conditions
12:15 AM 17.6 °F 3.2 °F 1.4 °F 49% 29.83 in 10.0 mi NW 15.0 mph 24.2 mph N/A   Clear
12:35 AM 17.6 °F 2.7 °F 1.4 °F 49% 29.83 in 10.0 mi NW 16.1 mph 24.2 mph N/A   Clear
12:55 AM 17.6 °F 2.7 °F 1.4 °F 49% 29.84 in 10.0 mi NW 16.1 mph 28.8 mph N/A   Clear
1:15 AM 17.6 °F 2.7 °F 1.4 °F 49% 29.85 in 10.0 mi NW 16.1 mph 27.6 mph N/A   Clear
1:35 AM 17.6 °F 1.7 °F 1.4 °F 49% 29.86 in 10.0 mi NW 18.4 mph 31.1 mph N/A   Clear
1:55 AM 17.6 °F 3.2 °F 1.4 °F 49% 29.86 in 10.0 mi NW 15.0 mph 28.8 mph N/A   Clear
2:15 AM 17.6 °F 3.2 °F 1.4 °F 49% 29.86 in 10.0 mi NW 15.0 mph 29.9 mph N/A   Clear
2:35 AM 17.6 °F 3.2 °F 1.4 °F 49% 29.87 in 10.0 mi NW 15.0 mph 23.0 mph N/A   Clear
2:55 AM 17.6 °F 4.3 °F 1.4 °F 49% 29.88 in 10.0 mi NW 12.7 mph 29.9 mph N/A   Clear
3:15 AM 17.6 °F 2.7 °F 1.4 °F 49% 29.89 in 10.0 mi NW 16.1 mph 25.3 mph N/A   Clear
3:35 AM 17.6 °F 3.7 °F -0.4 °F 45% 29.90 in 10.0 mi NW 13.8 mph 23.0 mph N/A   Clear
3:55 AM 17.6 °F 2.7 °F -0.4 °F 45% 29.92 in 10.0 mi NW 16.1 mph 26.5 mph N/A   Clear
4:15 AM 17.6 °F 4.3 °F -0.4 °F 45% 29.93 in 10.0 mi NW 12.7 mph 24.2 mph N/A   Clear
4:35 AM 19.4 °F 5.0 °F -0.4 °F 42% 29.94 in 10.0 mi NW 16.1 mph 34.5 mph N/A   Clear
4:55 AM 19.4 °F 5.0 °F -0.4 °F 42% 29.96 in 10.0 mi NNW 16.1 mph 29.9 mph N/A   Clear
5:15 AM 17.6 °F 2.2 °F -0.4 °F 45% 29.96 in 10.0 mi NW 17.3 mph 26.5 mph N/A   Clear
5:35 AM 17.6 °F 5.0 °F -0.4 °F 45% 29.98 in 10.0 mi NW 11.5 mph 27.6 mph N/A   Clear
5:55 AM 17.6 °F 3.2 °F 1.4 °F 49% 29.99 in 10.0 mi NW 15.0 mph 24.2 mph N/A   Clear
6:15 AM 17.6 °F 1.7 °F 1.4 °F 49% 30.01 in 10.0 mi NW 18.4 mph 28.8 mph N/A   Clear
6:35 AM 17.6 °F 2.2 °F 1.4 °F 49% 30.02 in 10.0 mi NNW 17.3 mph 27.6 mph N/A   Clear
6:55 AM 17.6 °F 2.7 °F 1.4 °F 49% 30.03 in 10.0 mi NW 16.1 mph 31.1 mph N/A   Clear
7:35 AM 19.4 °F 4.5 °F 1.4 °F 46% 30.05 in 10.0 mi NNW 17.3 mph 26.5 mph N/A   Clear
7:55 AM 19.4 °F 3.2 °F 1.4 °F 46% 30.05 in 10.0 mi NW 20.7 mph 31.1 mph N/A   Clear
8:15 AM 19.4 °F 6.6 °F 1.4 °F 46% 30.06 in 10.0 mi NNW 12.7 mph 31.1 mph N/A   Clear
8:35 AM 21.2 °F 7.3 °F 1.4 °F 42% 30.06 in 10.0 mi NNW 16.1 mph 26.5 mph N/A   Clear
8:55 AM 23.0 °F 7.6 °F -2.2 °F 33% 30.06 in 10.0 mi NNW 21.9 mph 38.0 mph N/A   Clear
9:15 AM 23.0 °F 7.6 °F -4.0 °F 31% 30.07 in 10.0 mi NW 21.9 mph 33.4 mph N/A   Clear
9:35 AM 23.0 °F 10.6 °F -4.0 °F 31% 30.09 in 10.0 mi NNW 13.8 mph 33.4 mph N/A   Clear
9:55 AM 23.0 °F 11.1 °F -4.0 °F 31% 30.10 in 10.0 mi NNW 12.7 mph 32.2 mph N/A   Clear
10:15 AM 26.6 °F 14.7 °F -2.2 °F 29% 30.11 in 10.0 mi NW 15.0 mph 23.0 mph N/A   Clear
10:35 AM 26.6 °F 15.2 °F -2.2 °F 29% 30.12 in 10.0 mi NW 13.8 mph 27.6 mph N/A   Clear
10:55 AM 26.6 °F 13.8 °F -2.2 °F 29% 30.11 in 10.0 mi NW 17.3 mph 25.3 mph N/A   Clear
11:15 AM 26.6 °F 14.7 °F -2.2 °F 29% 30.12 in 10.0 mi NW 15.0 mph 28.8 mph N/A   Clear
11:35 AM 28.4 °F 19.7 °F -0.4 °F 29% 30.12 in 10.0 mi NW 9.2 mph 16.1 mph N/A   Clear
11:55 AM 28.4 °F 17.0 °F -0.4 °F 29% 30.11 in 10.0 mi WNW 15.0 mph 29.9 mph N/A   Clear
12:15 PM 30.2 °F 20.2 °F 1.4 °F 29% 30.10 in 10.0 mi West 12.7 mph 19.6 mph N/A   Clear
12:35 PM 30.2 °F 20.2 °F -0.4 °F 27% 30.10 in 10.0 mi NW 12.7 mph 21.9 mph N/A   Clear
12:55 PM 30.2 °F 18.9 °F -0.4 °F 27% 30.10 in 10.0 mi WNW 16.1 mph 26.5 mph N/A   Clear
1:15 PM 32.0 °F 21.2 °F 1.4 °F 27% 30.10 in 10.0 mi NW 16.1 mph 24.2 mph N/A   Clear
1:35 PM 32.0 °F 24.2 °F -0.4 °F 25% 30.10 in 10.0 mi WNW 9.2 mph 18.4 mph N/A   Clear
1:55 PM 32.0 °F 23.0 °F -0.4 °F 25% 30.10 in 10.0 mi WNW 11.5 mph 24.2 mph N/A   Clear
2:15 PM 32.0 °F 23.0 °F -0.4 °F 25% 30.10 in 10.0 mi WNW 11.5 mph 18.4 mph N/A   Clear
2:35 PM 32.0 °F 23.6 °F -0.4 °F 25% 30.10 in 10.0 mi NW 10.4 mph 19.6 mph N/A   Clear
2:55 PM 32.0 °F 23.0 °F -0.4 °F 25% 30.10 in 10.0 mi NW 11.5 mph 21.9 mph N/A   Clear
3:15 PM 32.0 °F 24.2 °F 1.4 °F 27% 30.10 in 10.0 mi WNW 9.2 mph 16.1 mph N/A   Clear
3:35 PM 32.0 °F 24.2 °F 1.4 °F 27% 30.11 in 10.0 mi NW 9.2 mph 16.1 mph N/A   Clear
3:55 PM 32.0 °F 26.4 °F 1.4 °F 27% 30.11 in 10.0 mi NW 5.8 mph - N/A   Clear
4:15 PM 32.0 °F 24.8 °F 1.4 °F 27% 30.12 in 10.0 mi NW 8.1 mph - N/A   Clear
4:35 PM 32.0 °F 24.8 °F 1.4 °F 27% 30.12 in 10.0 mi WNW 8.1 mph 16.1 mph N/A   Clear
4:55 PM 32.0 °F 28.7 °F 1.4 °F 27% 30.13 in 10.0 mi WNW 3.5 mph - N/A   Clear
5:15 PM 32.0 °F 28.7 °F 1.4 °F 27% 30.14 in 10.0 mi WNW 3.5 mph - N/A   Clear
5:35 PM 32.0 °F - 1.4 °F 27% 30.15 in 10.0 mi Calm Calm - N/A   Clear
5:55 PM 32.0 °F - 1.4 °F 27% 30.15 in 10.0 mi Calm Calm - N/A   Clear
6:15 PM 30.2 °F 26.7 °F 3.2 °F 32% 30.15 in 10.0 mi West 3.5 mph - N/A   Clear
6:35 PM 30.2 °F 26.7 °F 3.2 °F 32% 30.16 in 10.0 mi West 3.5 mph - N/A   Clear
6:55 PM 30.2 °F 26.7 °F 3.2 °F 32% 30.16 in 10.0 mi West 3.5 mph - N/A   Clear
7:15 PM 30.2 °F 26.7 °F 5.0 °F 34% 30.16 in 10.0 mi West 3.5 mph - N/A   Clear
7:35 PM 30.2 °F 26.7 °F 5.0 °F 34% 30.16 in 10.0 mi West 3.5 mph - N/A   Clear
7:55 PM 30.2 °F 26.7 °F 6.8 °F 37% 30.17 in 10.0 mi WSW 3.5 mph - N/A   Clear
8:15 PM 30.2 °F 26.7 °F 6.8 °F 37% 30.17 in 10.0 mi WSW 3.5 mph - N/A   Clear
8:35 PM 26.6 °F - 6.8 °F 43% 30.17 in 10.0 mi Calm Calm - N/A   Clear
8:55 PM 28.4 °F 23.3 °F 8.6 °F 43% 30.18 in 10.0 mi WSW 4.6 mph - N/A   Clear
9:15 PM 28.4 °F 23.3 °F 8.6 °F 43% 30.19 in 10.0 mi WSW 4.6 mph - N/A   Clear
9:35 PM 28.4 °F 23.3 °F 8.6 °F 43% 30.18 in 10.0 mi WSW 4.6 mph - N/A   Clear
9:55 PM 30.2 °F - 6.8 °F 37% 30.17 in 10.0 mi Calm Calm - N/A   Clear
10:15 PM 28.4 °F 23.3 °F 8.6 °F 43% 30.18 in 10.0 mi WSW 4.6 mph - N/A   Clear
10:35 PM 30.2 °F 26.7 °F 6.8 °F 37% 30.18 in 10.0 mi SW 3.5 mph - N/A   Clear
10:55 PM 30.2 °F 25.4 °F 8.6 °F 40% 30.18 in 10.0 mi SW 4.6 mph - N/A   Clear
11:15 PM 30.2 °F 24.3 °F 8.6 °F 40% 30.19 in 10.0 mi WSW 5.8 mph - N/A   Clear
11:35 PM 30.2 °F 22.6 °F 8.6 °F 40% 30.19 in 10.0 mi West 8.1 mph - N/A   Clear
11:55 PM 30.2 °F 23.4 °F 8.6 °F 40% 30.19 in 10.0 mi WSW 6.9 mph - N/A   Clear